FW6296 Weather Reports


time (UTC)temp
C
wind
direction
speed
KPH
gust
KPH
rain 1hr
cm
rain 24hr
cm
rain mn
cm
humidity
%
barometer
mb
20260504012017 16 285 1.6 6.4 0.00 0.71 0.71 59 1006.7
20260504011017 16 276 3.2 6.4 0.00 0.71 0.71 58 1006.6
20260504010038 17 280 1.6 6.4 0.00 0.71 0.71 57 1006.6
20260504005018 17 276 1.6 6.4 0.00 0.71 0.71 57 1006.6
20260504004015 17 289 1.6 4.8 0.00 0.71 0.71 56 1006.7
20260504003015 18 293 1.6 8.0 0.00 0.71 0.71 54 1006.7
20260504002016 18 297 3.2 6.4 0.00 0.71 0.71 54 1006.7
20260504001016 18 301 4.8 11.3 0.00 0.71 0.71 52 1006.7
20260504000016 19 285 3.2 8.0 0.00 0.71 0.71 51 1006.8
20260503235016 19 291 4.8 11.3 0.00 0.71 0.71 51 1006.8
20260503234036 20 283 4.8 16.1 0.00 0.71 0.71 49 1006.7
20260503233017 20 285 8.0 17.7 0.00 0.71 0.71 48 1006.7
20260503232017 20 292 6.4 11.3 0.00 0.71 0.71 48 1006.7
20260503231017 20 280 6.4 14.5 0.00 0.71 0.71 47 1006.8
20260503230017 20 288 6.4 17.7 0.00 0.71 0.71 47 1006.9
20260503225037 20 291 6.4 16.1 0.00 0.71 0.71 48 1007.0
20260503224017 19 270 3.2 9.7 0.00 0.71 0.71 49 1007.1
20260503223017 18 275 3.2 8.0 0.00 0.71 0.71 50 1007.2
20260503222018 18 274 3.2 8.0 0.00 0.71 0.71 50 1007.3
20260503221017 18 222 1.6 9.7 0.00 0.71 0.71 49 1007.4
20260503220018 18 263 3.2 17.7 0.00 0.71 0.71 49 1007.5
20260503215059 19 249 3.2 9.7 0.00 0.71 0.71 48 1007.5
20260503214015 19 271 4.8 11.3 0.00 0.71 0.71 47 1007.7
20260503213016 19 266 3.2 11.3 0.00 0.71 0.71 48 1007.8
20260503212016 19 257 4.8 9.7 0.00 0.71 0.71 47 1008.0
20260503211016 18 285 4.8 8.0 0.00 0.71 0.71 48 1008.2
20260503210016 18 282 3.2 9.7 0.00 0.71 0.71 49 1008.4
20260503205037 18 274 3.2 9.7 0.00 0.71 0.71 48 1008.5
20260503204016 18 269 4.8 11.3 0.00 0.71 0.71 47 1008.6
20260503203017 17 270 6.4 16.1 0.00 0.71 0.71 47 1008.8
20260503202017 18 275 4.8 11.3 0.00 0.71 0.71 47 1009.0
20260503201017 18 275 4.8 12.9 0.00 0.71 0.71 47 1009.0
20260503200017 17 267 4.8 14.5 0.00 0.71 0.71 48 1009.1
20260503195058 18 259 6.4 16.1 0.00 0.71 0.71 47 1009.2
20260503194018 18 258 6.4 14.5 0.00 0.71 0.71 47 1009.4
20260503193018 18 269 3.2 11.3 0.00 0.71 0.71 49 1009.6
20260503192018 17 257 3.2 9.7 0.00 0.71 0.71 51 1009.7
20260503191018 17 259 4.8 14.5 0.00 0.71 0.71 52 1009.9
20260503190015 17 250 3.2 9.7 0.00 0.71 0.71 55 1010.1
20260503185016 16 257 3.2 11.3 0.00 0.71 0.71 56 1010.3
20260503184016 16 245 4.8 16.1 0.00 0.71 0.71 60 1010.6
20260503183015 15 349 1.6 8.0 0.00 0.71 0.71 67 1010.8
20260503182016 13 64 3.2 8.0 0.00 0.71 0.71 70 1011.0
20260503181025 12 172 3.2 8.0 0.00 0.71 0.71 75 1011.4
20260503180026 11 281 1.6 4.8 0.08 0.71 0.71 76 1011.7
20260503175026 10 102 1.6 6.4 0.08 0.71 0.71 78 1012.2
20260503174026 10 298 1.6 4.8 0.10 0.71 0.71 77 1012.7
20260503173028 10 16 1.6 4.8 0.13 0.71 0.71 80 1013.3
20260503172026 10 48 1.6 3.2 0.13 0.71 0.71 82 1013.5
20260503171026 10 106 1.6 4.8 0.13 0.69 0.69 81 1013.5
20260503131016 10 52 3.2 4.8 0.00 0.00 0.00 64 1015.1
20260503081021 5 51 1.6 3.2 0.00 0.00 0.00 71 1015.4
20260503072022 5 47 1.6 3.2 0.00 0.00 0.00 69 1015.3
20260503071016 6 241 3.2 9.7 0.00 0.00 0.00 68 1015.4
20260503055017 6 2 3.2 9.7 0.00 0.00 0.00 65 1016.1
20260503054017 6 264 3.2 11.3 0.00 0.00 0.00 65 1016.1
20260503053017 6 281 3.2 12.9 0.00 0.00 0.00 65 1016.2
20260503052017 6 315 3.2 12.9 0.00 0.00 0.00 66 1016.3
20260503051023 6 266 3.2 8.0 0.00 0.00 0.00 67 1016.3
20260503050023 6 32 3.2 8.0 0.00 0.00 0.00 67 1016.4
20260503045017 6 310 1.6 8.0 0.00 0.00 0.00 66 1016.4
20260503044018 6 19 0.0 4.8 0.00 0.00 0.00 66 1016.5
20260503043023 6 42 1.6 3.2 0.00 0.00 0.00 66 1016.4
20260503042104 6 55 0.0 4.8 0.00 0.00 0.00 66 1016.5
20260503041016 6 246 0.0 6.4 0.00 0.00 0.00 65 1016.5
20260503040016 6 133 0.0 11.3 0.00 0.00 0.00 65 1016.5
20260503035016 6 77 0.0 3.2 0.00 0.00 0.00 66 1016.5
20260503034016 6 360 0.0 4.8 0.00 0.00 0.00 65 1016.6
20260503033016 6 67 0.0 6.4 0.00 0.00 0.00 64 1016.5
20260503032016 7 37 0.0 4.8 0.00 0.00 0.00 63 1016.6
20260503031016 7 67 0.0 4.8 0.00 0.00 0.00 61 1016.6
20260503030038 7 49 0.0 3.2 0.00 0.00 0.00 59 1016.7
20260503025037 8 98 0.0 3.2 0.00 0.00 0.00 58 1016.7
20260503024017 8 61 0.0 3.2 0.00 0.00 0.00 58 1016.7
20260503023017 7 343 0.0 3.2 0.00 0.00 0.00 59 1016.6
20260503022017 8 75 0.0 3.2 0.00 0.00 0.00 60 1016.6
20260503021017 8 17 0.0 3.2 0.00 0.00 0.00 59 1016.6
20260503020038 8 7 0.0 1.6 0.00 0.00 0.00 59 1016.6
20260503015018 8 3 0.0 1.6 0.00 0.00 0.00 59 1016.6
20260503014018 8 0.0 0.0 0.00 0.00 0.00 57 1016.5
20260503013017 9 117 0.0 0.0 0.00 0.00 0.00 55 1016.4